Home   Weather   Lomé   Past weeks

Flag for Togo Past Weather in Lomé, Togo — Yesterday and Last 2 Weeks

Now
81 °F

Passing clouds.


Feels Like: 84 °F
Forecast: N/A
Wind: 14 mph from South

Location: Lome Airport

Current Time: Aug 19, 2017 at 5:03:12 pm

Latest Report: Aug 19, 2017 at 4:00 pm


Visibility: N/A

Pressure: 29.89 "Hg

Humidity: 70%

Dew Point: 70 °F

Location of LoméLocation

Past Weather in Lomé — Graph

°F

Lomé Temperature Yesterday

Maximum temperature yesterday: 82 °F (at 12:00 pm)
Minimum temperature yesterday: 75 °F (at 12:00 am)
Average temperature yesterday: 77 °F

High & Low Weather Summary for the Past Weeks

 TemperatureHumidityPressure
High84 °F (Aug 11, 1:00 pm)100% (Aug 6, 3:00 am)30.04 "Hg (Aug 6, 3:00 am)
Low73 °F (Aug 6, 3:00 am)66% (Aug 17, 1:00 pm)29.83 "Hg (Aug 17, 1:00 pm)
Average78 °F85%29.94 "Hg
* Reported Aug 4 4:00 pm — Aug 19 4:00 pm, Lomé. Weather by CustomWeather, © 2017

Note: Actual official high and low records may vary slightly from our data, if they occured in-between our weather recording intervals... More about our weather records

Advertising

Lomé Weather History for the Previous 24 Hours

Scroll right to see more
 ConditionsComfort  
Time TempWeatherWind HumidityBarometerVisibility
4:00 pm
Sat, Aug 19
81 °FPassing clouds.14 mph70%29.89 "HgN/A
3:00 pm82 °FPassing clouds.14 mph70%29.89 "HgN/A
2:00 pm82 °FPassing clouds.14 mph70%29.92 "HgN/A
1:00 pm82 °FPassing clouds.14 mph66%29.92 "HgN/A
12:00 pm82 °FPassing clouds.14 mph66%29.95 "HgN/A
11:00 am82 °FPassing clouds.15 mph66%29.98 "HgN/A
10:00 am81 °FPassing clouds.14 mph70%29.98 "HgN/A
9:00 am79 °FScattered clouds.14 mph79%29.98 "HgN/A
8:00 am77 °FPassing clouds.10 mph83%29.95 "HgN/A
7:00 am75 °FPassing clouds.7 mph89%29.95 "Hg5 mi
6:00 am73 °FPassing clouds.7 mph94%29.92 "Hg5 mi
3:00 am75 °FPassing clouds.9 mph89%29.89 "HgN/A
2:00 am75 °FPassing clouds.10 mph89%29.89 "HgN/A
1:00 am75 °FPassing clouds.9 mph89%29.89 "HgN/A
12:00 am75 °FPassing clouds.10 mph89%29.92 "HgN/A
11:00 pm
Fri, Aug 18
75 °FPassing clouds.10 mph89%29.92 "HgN/A
10:00 pm75 °FPassing clouds.12 mph89%29.95 "HgN/A
9:00 pm75 °FPassing clouds.10 mph89%29.92 "HgN/A
8:00 pm75 °FPassing clouds.9 mph89%29.92 "HgN/A
7:00 pm75 °FPassing clouds.9 mph89%29.89 "HgN/A
6:00 pm77 °FScattered clouds.10 mph83%29.86 "HgN/A
5:00 pm77 °FScattered clouds.13 mph83%29.86 "Hg5 mi
Weather by CustomWeather, © 2017

See weather overviewHow to use our weather pages